Facebook Twitter

Wetterstation Kufstein

Messwerte
  Temperatur Wetter Niederschlag Luftdruck Wind
Do, 06:00 Uhr 15° - 0 mm 1021.7 hPa 4 km/h NO
Do, 05:00 Uhr 15° - 0 mm 1021.9 hPa 4 km/h NO
Do, 04:00 Uhr 15° - 0 mm 1021.8 hPa 4 km/h NO
Do, 03:00 Uhr 16° - 0.0 mm 1021.6 hPa 4 km/h NO
Do, 02:00 Uhr 17° - 0 mm 1021.6 hPa 0 km/h NO
Do, 01:00 Uhr 18° - 0.0 mm 1021.5 hPa 7 km/h NO
Do, 00:00 Uhr 16° - 0.0 mm 1021.6 hPa 0 km/h NO
Mi, 23:00 Uhr 17° - 0.0 mm 1021.3 hPa 0 km/h NO
Mi, 22:00 Uhr 18° - 0.0 mm 1020.6 hPa 0 km/h NO
Mi, 21:00 Uhr 20° - 0.0 mm 1019.8 hPa 4 km/h W
Mi, 20:00 Uhr 22° - 0.0 mm 1019 hPa 0 km/h W
Mi, 19:00 Uhr 23° - 0.0 mm 1018.8 hPa 7 km/h NO
Mi, 18:00 Uhr 24° - 0.0 mm 1019 hPa 7 km/h NO
Mi, 17:00 Uhr 24° - 0.0 mm 1019 hPa 11 km/h NO
Mi, 16:00 Uhr 24° - 0.0 mm 1019.2 hPa 11 km/h NO
Mi, 15:00 Uhr 24° - 0.1 mm 1019.3 hPa 11 km/h NO
Mi, 14:00 Uhr 23° - 0 mm 1020 hPa 11 km/h O
Mi, 13:00 Uhr 22° - 0 mm 1020.3 hPa 7 km/h O
Mi, 12:00 Uhr 23° - 0 mm 1020.4 hPa 7 km/h O
Mi, 11:00 Uhr 21° - 0 mm 1020.6 hPa 4 km/h W

Alle Zeitangaben MESZ